Date String (YYYY-MM-DD hh:mm:ss) UTC,Instrument flags,Ambient pressure (hPa),Sample flow (lpm),Bypass flow (lpm),Sample temperature (°C),Ambient temperature (°C),ASC tube jacket temperature (°C),LED temperature (°C),Box temperature (°C),Sample RH (%),Span deviation,Mass concentration (μg/m³),Mass concentration (μg/m³),Mass concentration (μg/m³)
DateTimeUTC,F1_M11,P_M11,Q1_M11,Q2_M11,T1_M11,T2_M11,T3_M11,T4_M11,T5_M11,U1_M11,ZSPAN_M11,X0_M11,X2_M11,X1_M11
2022-07-05 19:00:00,,0826.7,5.00,0.00,29.3,28.2,00.0,38.0,31.3,23.9,0000.0,0007.15,0002.63,0001.75
2022-07-05 19:01:00,,0826.6,5.00,0.00,29.3,27.6,00.0,37.9,31.3,24.0,0000.0,0007.18,0002.59,0001.75
2022-07-05 19:02:00,,0826.7,5.00,0.00,29.3,27.0,00.0,37.9,31.1,23.6,0000.0,0007.00,0002.62,0001.74
2022-07-05 19:03:00,,0826.5,4.99,0.00,29.3,26.8,00.0,37.9,31.1,23.7,0000.0,0006.37,0002.61,0001.72
2022-07-05 19:04:00,,0826.5,4.99,0.00,29.2,26.9,00.0,37.9,31.0,24.2,0000.0,0006.32,0002.57,0001.70
2022-07-05 19:05:00,,0826.4,5.01,0.00,29.1,27.1,00.0,37.9,31.0,24.0,0000.0,0006.56,0002.57,0001.68
2022-07-05 19:06:00,,0826.3,4.99,0.00,29.1,27.3,00.0,37.9,31.0,24.6,0000.0,0006.58,0002.55,0001.68
2022-07-05 19:07:00,,0826.3,5.00,0.00,29.1,27.5,00.0,37.9,31.0,24.8,0000.0,0005.74,0002.50,0001.67
2022-07-05 19:08:00,,0826.2,5.00,0.00,29.1,27.6,00.0,37.9,31.1,24.8,0000.0,0006.97,0002.49,0001.66
2022-07-05 19:09:00,,0826.2,5.01,0.00,29.2,27.8,00.0,37.9,31.1,25.0,0000.0,0007.29,0002.56,0001.67
2022-07-05 19:10:00,,0826.2,5.00,0.00,29.2,28.0,00.0,37.9,31.2,24.5,0000.0,0007.51,0002.59,0001.68
2022-07-05 19:11:00,,0826.2,5.00,0.00,29.2,28.1,00.0,37.9,31.2,24.0,0000.0,0007.05,0002.66,0001.69
2022-07-05 19:12:00,,0826.2,5.00,0.00,29.3,28.2,00.0,38.0,31.3,24.1,0000.0,0006.91,0002.75,0001.71
2022-07-05 19:13:00,,0826.2,5.00,0.00,29.3,27.7,00.0,37.9,31.3,24.1,0000.0,0007.04,0002.77,0001.72
2022-07-05 19:14:00,,0826.2,5.00,0.00,29.3,26.9,00.0,37.9,31.1,23.9,0000.0,0007.26,0002.84,0001.74
2022-07-05 19:15:00,,0826.2,5.00,0.00,29.2,26.7,00.0,37.8,31.1,23.6,0000.0,0007.33,0002.86,0001.75
2022-07-05 19:16:00,,0826.1,5.00,0.00,29.2,26.8,00.0,37.9,30.9,24.0,0000.0,0007.11,0002.85,0001.75
2022-07-05 19:17:00,,0826.2,5.00,0.00,29.1,26.9,00.0,37.9,30.9,23.6,0000.0,0007.02,0002.85,0001.75
2022-07-05 19:18:00,,0826.2,5.01,0.00,29.1,27.1,00.0,37.9,30.9,23.6,0000.0,0007.27,0002.95,0001.74
2022-07-05 19:19:00,,0826.2,4.99,0.00,29.1,27.3,00.0,37.8,31.0,23.4,0000.0,0005.82,0002.88,0001.72
2022-07-05 19:20:00,,0826.1,5.00,0.00,29.1,27.5,00.0,37.9,31.0,20.6,0000.0,0005.52,0002.83,0001.69
2022-07-05 19:21:00,,0826.2,5.00,0.00,29.1,27.7,00.0,37.9,31.1,21.4,0000.0,0005.58,0002.79,0001.65
2022-07-05 19:22:00,,0826.2,5.00,0.00,29.2,27.9,00.0,37.9,31.1,23.1,0000.0,0005.29,0002.70,0001.63
2022-07-05 19:23:00,,0826.2,4.99,0.00,29.2,28.0,00.0,37.9,31.2,23.5,0000.0,0005.53,0002.60,0001.60
2022-07-05 19:24:00,,0826.2,5.00,0.00,29.3,28.2,00.0,37.9,31.3,23.3,0000.0,0005.42,0002.53,0001.60
2022-07-05 19:25:00,,0826.2,5.00,0.00,29.3,28.2,00.0,37.9,31.3,23.4,0000.0,0005.25,0002.48,0001.59
2022-07-05 19:26:00,,0826.2,4.99,0.00,29.3,27.7,00.0,37.9,31.3,23.3,0000.0,0005.12,0002.44,0001.59
2022-07-05 19:27:00,,0826.2,4.99,0.00,29.3,27.0,00.0,37.9,31.1,22.8,0000.0,0005.09,0002.43,0001.59
2022-07-05 19:28:00,,0826.2,5.00,0.00,29.2,26.9,00.0,37.8,31.1,23.2,0000.0,0005.16,0002.46,0001.61
2022-07-05 19:29:00,,0826.2,5.00,0.00,29.2,26.9,00.0,37.9,31.0,23.6,0000.0,0004.97,0002.40,0001.60
2022-07-05 19:30:00,,0826.2,5.00,0.00,29.1,27.1,00.0,37.9,30.9,23.7,0000.0,0004.97,0002.42,0001.60
2022-07-05 19:31:00,,0826.2,5.00,0.00,29.1,27.3,00.0,37.9,31.0,23.5,0000.0,0004.94,0002.36,0001.62
2022-07-05 19:32:00,,0826.2,5.00,0.00,29.1,27.5,00.0,37.9,31.0,23.6,0000.0,0004.64,0002.34,0001.62
2022-07-05 19:33:00,,0826.2,4.99,0.00,29.2,27.7,00.0,37.9,31.1,25.4,0000.0,0004.48,0002.34,0001.63
2022-07-05 19:34:00,,0826.2,5.00,0.00,29.2,27.8,00.0,37.9,31.1,26.1,0000.0,0004.80,0002.40,0001.64
2022-07-05 19:35:00,,0826.2,5.00,0.00,29.2,28.0,00.0,37.9,31.2,26.0,0000.0,0004.91,0002.49,0001.66
2022-07-05 19:36:00,,0826.2,5.00,0.00,29.3,28.1,00.0,37.9,31.3,25.8,0000.0,0006.66,0002.53,0001.68
2022-07-05 19:37:00,,0826.2,5.00,0.00,29.3,28.2,00.0,38.0,31.3,25.1,0000.0,0006.99,0002.62,0001.69
2022-07-05 19:38:00,,0826.2,5.00,0.00,29.3,27.9,00.0,37.9,31.3,24.7,0000.0,0007.57,0002.65,0001.70
2022-07-05 19:39:00,,0826.2,5.00,0.00,29.3,27.2,00.0,37.9,31.2,24.5,0000.0,0007.58,0002.65,0001.71
2022-07-05 19:40:00,,0826.2,5.00,0.00,29.3,26.9,00.0,37.9,31.1,24.0,0000.0,0007.55,0002.61,0001.72
2022-07-05 19:41:00,,0826.2,5.00,0.00,29.2,26.9,00.0,37.9,31.0,23.9,0000.0,0007.58,0002.60,0001.72
2022-07-05 19:42:00,,0826.2,5.00,0.00,29.2,27.1,00.0,37.9,31.0,23.6,0000.0,0007.54,0002.57,0001.71
2022-07-05 19:43:00,,0826.2,5.00,0.00,29.1,27.2,00.0,37.9,31.0,23.4,0000.0,0007.53,0002.56,0001.70
2022-07-05 19:44:00,,0826.2,5.00,0.00,29.2,27.4,00.0,37.9,31.1,23.4,0000.0,0007.51,0002.54,0001.68
2022-07-05 19:45:00,,0826.2,5.00,0.00,29.2,27.6,00.0,37.9,31.1,22.8,0000.0,0006.87,0002.46,0001.65
2022-07-05 19:46:00,,0826.3,5.00,0.00,29.2,27.8,00.0,37.9,31.2,23.3,0000.0,0006.72,0002.38,0001.61
2022-07-05 19:47:00,,0826.3,5.00,0.00,29.3,28.0,00.0,37.9,31.2,24.3,0000.0,0005.01,0002.33,0001.58
2022-07-05 19:48:00,,0826.4,4.99,0.00,29.3,28.1,00.0,38.0,31.3,23.9,0000.0,0004.83,0002.25,0001.56
2022-07-05 19:49:00,,0826.2,5.00,0.00,29.3,28.3,00.0,38.0,31.3,23.9,0000.0,0004.10,0002.21,0001.53
2022-07-05 19:50:00,,0826.2,5.01,0.00,29.4,28.4,00.0,38.0,31.4,23.6,0000.0,0004.33,0002.20,0001.49
2022-07-05 19:51:00,,0826.2,5.03,0.00,29.4,27.9,00.0,38.0,31.4,23.8,0000.0,0004.82,0002.19,0001.47
2022-07-05 19:52:00,,0826.2,5.00,0.00,29.4,27.2,00.0,37.9,31.2,24.2,0000.0,0005.77,0002.21,0001.46
2022-07-05 19:53:00,,0826.2,5.01,0.00,29.3,27.0,00.0,37.9,31.2,24.4,0000.0,0006.27,0002.32,0001.46
2022-07-05 19:54:00,,0826.2,5.01,0.00,29.3,27.1,00.0,37.9,31.1,25.2,0000.0,0006.40,0002.44,0001.48
2022-07-05 19:55:00,,0826.2,5.00,0.00,29.2,27.2,00.0,37.9,31.0,24.5,0000.0,0006.49,0002.52,0001.48
2022-07-05 19:56:00,,0826.2,5.00,0.00,29.2,27.4,00.0,37.9,31.1,24.1,0000.0,0006.55,0002.54,0001.49
2022-07-05 19:57:00,,0826.2,5.01,0.00,29.2,27.6,00.0,37.9,31.1,24.5,0000.0,0006.87,0002.61,0001.50
2022-07-05 19:58:00,,0826.2,5.00,0.00,29.3,27.8,00.0,38.0,31.2,24.4,0000.0,0006.68,0002.60,0001.50
2022-07-05 19:59:00,,0826.2,4.99,0.00,29.3,28.0,00.0,38.0,31.2,24.1,0000.0,0006.76,0002.62,0001.52
